Location: Ávila
(40.6572°N, 4.6995°W)
Time: 03:13:50
(UTC+00:00)

Daily predictions for brighter satellites

Satellite Brightness Start Highest point End
(mag) Time Altitude Azimuth Time Altitude Azimuth Time Altitude Azimuth
SL-08 ROCKET BODY 4.2 00:00:45 10° N 00:06:39 82° E 00:06:46 82° ESE
Cosmos 1461 4.4 00:03:03 10° NNW 00:06:31 33° NE 00:06:31 33° NE
Cosmos 1244 Rocket 4.4 00:00:45 10° N 00:07:04 72° E 00:07:36 68° ESE
Nadezhda 2 Rocket 4.3 00:02:40 10° N 00:08:51 76° E 00:09:13 74° ESE
ATLAS CENTAUR R/B 2.3 00:10:18 10° NNW 00:13:59 51° NW 00:13:59 51° NW
Cosmos 2322 Rocket 4.3 00:15:21 12° W 00:18:50 20° NW 00:22:51 10° N
Cosmos 2333 Rocket 2.8 00:19:42 46° W 00:20:27 49° WNW 00:25:57 10° NNE
Cosmos 2322 3.8 00:20:48 66° W 00:21:05 67° WNW 00:26:48 10° NNE
ATLAS 5 CENTAUR R/B 3.7 00:10:29 10° NW 00:22:44 48° NNE 00:24:40 32° E
CZ-4C R/B 3.3 00:16:33 10° NNW 00:23:55 66° NE 00:27:53 34° SE
Cosmos 1818 4.1 00:19:53 10° NW 00:24:10 48° WNW 00:24:10 48° WNW
Cosmos 1844 Rocket 3.9 00:22:35 10° NW 00:26:32 29° W 00:26:32 29° W
NOSS 0 Rocket 4.1 00:29:22 55° ESE 00:29:22 55° ESE 00:35:27 10° NNE
USA 215 4.3 00:23:22 10° NE 00:29:25 41° NNW 00:35:28 10° W
PSLV R/B 4.2 00:31:31 10° N 00:35:00 55° N 00:35:00 55° N
ALOS 2 4.4 00:38:34 23° WNW 00:38:34 23° WNW 00:40:56 10° NW
Cosmos 2151 Rocket 4.3 00:37:34 10° N 00:40:53 50° N 00:40:53 50° N
ADEOS Rocket 3.2 00:42:18 51° W 00:42:18 51° W 00:47:45 10° NNW
Cosmos 2219 Rocket 3.0 00:42:56 39° W 00:43:45 41° WNW 00:49:02 10° N
Cosmos 1745 Rocket 4.0 00:37:36 10° N 00:43:50 69° E 00:44:35 62° ESE
Okean 2 Rocket 3.9 00:41:49 10° NNW 00:45:13 49° NNW 00:45:13 49° NNW
Meteor 1-16 Rocket 4.2 00:45:39 10° N 00:51:37 79° E 00:52:02 74° SE
Lacrosse 5 3.4 00:58:31 25° E 00:58:31 25° E 01:01:28 10° ENE
GP-B 4.2 00:54:23 10° NNE 00:58:07 36° ENE 00:58:07 36° ENE
CZ-2D R/B 3.7 00:57:33 10° NE 01:01:48 24° E 01:02:28 23° ESE
Cosmos 1300 4.3 00:58:52 10° N 01:01:27 33° NE 01:01:27 33° NE
USA 267 3.1 01:02:15 63° S 01:03:08 72° SW 01:09:42 10° NW
Cosmos 883 Rocket 4.5 01:04:14 63° SE 01:05:07 72° E 01:11:26 10° NNE
ASTEX 1 4.1 01:00:49 10° N 01:05:06 42° WNW 01:05:06 42° WNW
Cosmos 371 Rocket 3.4 01:06:03 72° N 01:06:03 72° N 01:10:28 10° NNE
Cosmos 2150 Rocket 3.9 01:06:08 79° NW 01:06:08 79° NW 01:11:09 10° NNE
USA 305 3.8 01:07:08 45° NNE 01:07:08 45° NNE 01:10:12 10° NE
USA 229 DEB 3.9 01:03:50 10° NNW 01:11:19 83° NE 01:15:06 35° SE
USA 229 3.9 01:03:56 10° NNW 01:11:25 82° NE 01:15:14 34° SE
Cosmos 2237 Rocket 2.0 01:11:28 82° S 01:11:43 86° ESE 01:17:27 10° NNE
COSMOS 2428 3.8 01:12:17 32° W 01:13:28 35° WNW 01:18:40 10° N
Cosmos 1048 Rocket 4.3 01:09:57 10° NNW 01:14:18 54° WNW 01:14:18 54° WNW
Cosmos 405 Rocket 4.4 01:18:03 27° NW 01:18:03 27° NW 01:20:14 10° N
Cosmos 304 Rocket 3.9 01:17:17 72° ENE 01:17:17 72° ENE 01:21:44 10° NNE
Cosmos 494 Rocket 4.2 01:12:36 10° NNW 01:17:00 57° WNW 01:17:00 57° WNW
SL-16 R/B 4.0 01:14:42 14° ESE 01:19:11 32° ENE 01:24:37 10° N
Lacrosse 5 rocket 3.5 01:21:54 16° E 01:21:54 16° E 01:23:09 10° ENE
Cosmos 1125 Rocket 3.7 01:20:00 57° WNW 01:20:07 57° WNW 01:25:15 10° NNE
Cosmos 1437 Rocket 4.3 01:17:15 10° NNW 01:19:16 29° NNW 01:19:16 29° NNW
NOSS 2-2 (E) 4.4 01:15:49 10° NW 01:21:23 81° WSW 01:23:11 53° SSE
SME Rocket 3.7 01:24:34 47° E 01:24:49 48° ENE 01:29:22 10° N
Okean 1 Rocket 3.8 01:20:39 10° NNW 01:24:05 47° NW 01:24:05 47° NW
Cosmos 1953 3.6 01:23:53 10° NNW 01:26:26 34° NW 01:26:26 34° NW
Resurs 1-4 Rocket 2.7 01:26:07 10° NNE 01:31:10 45° E 01:31:56 42° ESE
Cosmos 1943 Rocket 3.7 01:28:54 10° N 01:34:02 34° ENE 01:39:08 10° ESE
MOZ.5/SAFIR/RUBIN 5/SL-8 3.7 01:33:59 82° E 01:34:03 83° ENE 01:38:48 10° N
Cosmos 2315 Rocket 4.0 01:35:34 59° SSW 01:36:47 77° W 01:43:12 10° N
NOSS 3-1 (A) 4.2 01:30:19 10° NW 01:37:59 60° WSW 01:40:38 44° S
Cosmos 1709 Rocket 3.8 01:32:11 10° N 01:38:18 74° W 01:39:18 61° SSW
Cosmos 2278 Rocket 2.3 01:39:51 10° NNW 01:45:23 55° WSW 01:45:23 55° WSW
EO 1 Delta rocket 4.1 01:41:03 10° N 01:45:41 61° WNW 01:46:02 59° W
ADEOS II 3.3 01:42:20 10° NNE 01:47:01 32° E 01:48:40 27° SE
IDEFIX/ARIANE 42P 4.1 01:43:26 10° NE 01:47:53 27° E 01:49:51 22° SE
USA 306 4.1 01:47:34 33° NW 01:48:12 35° NNW 01:52:03 10° NE
Cosmos 2084 Rocket 3.7 01:49:15 57° NNE 01:49:15 57° NNE 01:52:20 10° NE
USA 307 3.9 01:51:04 35° NW 01:51:40 37° NNW 01:55:35 10° NE
ERBS 4.3 01:54:54 24° N 01:54:54 24° N 01:56:46 10° NNE
Thor Agena Rocket 3.8 01:50:12 10° N 01:55:23 57° WNW 01:56:09 52° WSW
SL-16 R/B 2.2 01:58:00 53° S 01:59:14 70° ESE 02:04:53 10° NNE
NPP 3.8 01:53:52 10° NNE 01:59:14 67° ESE 02:00:35 49° SSE
Cosmos 1455 Rocket 3.1 01:58:54 10° NNW 02:03:14 67° W 02:03:14 67° W
CZ-4 R/B 3.6 01:59:29 10° NNE 02:04:09 89° WNW 02:04:41 71° SSW
COSMOS 2455 3.4 02:04:48 36° SSE 02:06:41 47° ESE 02:12:26 10° NE
Cosmos 332 Rocket 4.4 02:07:03 39° W 02:07:34 40° WNW 02:12:05 10° N
Cosmos 1536 Rocket 4.4 02:08:03 37° SE 02:09:05 45° E 02:13:17 10° NNE
CZ-4C R/B 3.8 02:05:40 10° NW 02:12:21 32° WSW 02:12:59 32° WSW
Cosmos 1975 Rocket 3.8 02:16:47 37° W 02:16:51 38° WNW 02:21:01 10° N
Nadezhda 1 Rocket 4.3 02:15:05 29° SSE 02:18:23 62° E 02:24:36 10° NNE
Meteor 1-24 Rocket 3.7 02:17:04 48° SW 02:18:31 67° W 02:24:00 10° N
UNK 3.7 02:19:09 42° SSE 02:20:40 79° ENE 02:25:16 10° N
Meteor 2-10 Rocket 4.3 02:16:41 10° NNW 02:21:49 37° W 02:22:24 36° WSW
Cosmos 1025 Rocket 3.7 02:23:55 38° W 02:24:03 38° WNW 02:28:06 10° N
MOS 1 Rocket 3.1 02:23:22 42° SSE 02:24:44 75° ENE 02:29:02 10° N
YAOGAN 11 4.1 02:23:44 43° SSE 02:25:10 82° ENE 02:29:41 10° N
Cosmos 1455 2.0 02:23:22 10° N 02:27:05 84° E 02:27:22 74° SSE
Cosmos 1271 Rocket 3.6 02:27:09 10° N 02:30:51 45° ENE 02:32:45 25° SE
Cosmos 1269 Rocket 4.1 02:28:49 10° NNW 02:33:59 57° WSW 02:35:29 41° SSW
Meteor 2-5 Rocket 4.5 02:38:06 31° WSW 02:39:51 38° WNW 02:45:09 10° N
Lacrosse 5 2.5 02:37:42 30° W 02:39:52 49° NW 02:44:50 10° NE
CZ-2D R/B 2.7 02:36:56 10° N 02:41:59 43° WNW 02:43:47 32° WSW
Helios 1B rocket 4.4 02:42:47 10° NE 02:46:03 23° E 02:49:10 11° SSE
BREEZE-M DEB (TANK) 3.4 02:47:13 33° SSW 02:49:08 52° SSE 02:51:57 10° ENE
Cosmos 1544 Rocket 4.1 02:45:30 10° NNW 02:49:38 39° W 02:50:15 37° WSW
Cosmos 2154 Rocket 4.0 02:45:09 10° N 02:51:30 78° W 02:56:00 20° S
Cosmos 1943 3.8 02:50:42 21° S 02:54:18 50° ESE 02:59:47 10° NNE
Helios 1A 2.9 02:53:26 31° S 02:55:23 76° WSW 02:59:38 10° NNW
Cosmos 2237 Rocket 4.3 02:53:16 10° W 02:56:33 16° NW 02:59:58 10° N
Lacrosse 5 rocket 2.1 02:57:25 28° W 02:58:53 41° NW 03:02:45 10° NNE
AQUA 4.4 02:54:27 10° N 02:58:55 41° WNW 03:00:41 29° WSW
SL-16 R/B 3.0 02:59:47 27° SSW 03:02:36 41° W 03:08:28 10° NNW
Lacrosse 4 Rocket 4.2 03:05:38 10° ESE 03:06:50 11° ESE 03:08:01 10° E
Resurs 1-4 Rocket 3.5 03:06:35 10° NNW 03:10:40 23° WNW 03:13:01 17° W
Cosmos 1703 3.5 03:11:07 32° SW 03:12:33 50° W 03:16:24 10° N
Cosmos 1726 Rocket 4.2 03:10:20 10° N 03:14:40 55° E 03:18:57 10° SSE
NOSS 3-3 (A) 3.8 03:13:34 23° SSW 03:17:09 84° ESE 03:23:28 10° NE
NOSS 3-3 (C) 3.8 03:13:40 23° SSW 03:17:15 83° ESE 03:23:33 10° NE
Cosmos 1943 Rocket 2.8 03:12:39 10° NW 03:17:45 35° WSW 03:20:53 20° SSW
Cosmos 2297 4.0 03:12:46 10° NW 03:18:14 45° WSW 03:23:20 12° S
GPS 2-04 Rocket1 3.9 03:24:12 19° S 03:24:55 20° SSE 03:27:36 10° ESE
ADEOS II 3.1 03:22:03 10° N 03:26:37 31° WNW 03:29:36 18° WSW
IDEFIX/ARIANE 42P 3.4 03:22:40 10° N 03:27:29 37° WNW 03:30:40 19° SW
ARIANE 5 R/B 3.8 03:24:52 10° NNE 03:29:32 36° E 03:34:07 10° SSE
CBERS-1 4.0 03:27:23 10° NNE 03:32:32 86° WNW 03:37:08 13° SSW
DNEPR-1 R/B 3.5 03:32:35 20° SW 03:35:25 84° WNW 03:39:58 10° NNE
MOS 1-B Rocket 3.8 03:30:48 10° SSE 03:36:25 87° ENE 03:42:10 10° NNW
Cosmos 2218 Rocket 4.2 03:30:20 10° N 03:36:37 77° E 03:42:54 10° S
Meteor 1-21 Rocket 4.5 03:34:00 17° SSW 03:38:18 53° WNW 03:43:45 10° N
Cosmos 2056 Rocket 3.9 03:33:17 10° S 03:38:22 62° ESE 03:43:34 10° NNE
Cosmos 1892 3.6 03:36:05 10° SSE 03:39:44 48° E 03:43:23 10° NNE
Cosmos 2228 3.7 03:37:17 10° NNW 03:41:15 35° W 03:44:18 15° SSW
Cosmos 2369 Rocket 2.2 03:37:58 10° NNW 03:43:28 58° WSW 03:48:54 10° S
SL-16 R/B 4.0 03:39:58 10° W 03:43:54 19° NW 03:47:53 10° N
IRS-1D 4.1 03:39:11 10° N 03:44:12 44° WNW 03:48:23 14° SW
OAO 2 Rocket 4.1 03:41:17 17° SW 03:44:28 34° SSE 03:48:54 10° ESE
Cosmos 2251 Rocket 3.8 03:42:29 10° NNW 03:47:31 47° WSW 03:52:33 10° S
Cosmos 2181 Rocket 4.0 03:43:13 10° SSW 03:49:27 74° W 03:55:38 10° N
Cosmos 2058 Rocket 3.2 03:45:20 10° N 03:49:44 77° E 03:54:04 10° SSE
[s.n.52708] 2.7 03:48:11 19° SW 03:50:01 65° SE 03:52:49 10° NE
[s.n.52707] 2.7 03:48:17 19° SW 03:50:08 66° SE 03:52:56 10° NE
[s.n.52703] 2.7 03:48:24 19° SW 03:50:15 66° SE 03:53:03 10° NE
[s.n.52705] 2.7 03:48:30 19° SW 03:50:21 66° SE 03:53:10 10° NE
[s.n.52706] 2.7 03:48:36 19° SW 03:50:28 66° SE 03:53:17 10° NE
[s.n.52701] 2.7 03:48:43 19° SW 03:50:35 66° SE 03:53:23 10° NE
[s.n.52704] 2.7 03:48:49 19° SW 03:50:41 67° SE 03:53:30 10° NE
[s.n.52699] 2.7 03:48:56 19° SW 03:50:47 67° SE 03:53:37 10° NE
[s.n.52702] 2.7 03:49:02 19° SW 03:50:55 67° SE 03:53:43 10° NE
[s.n.52697] 2.7 03:49:09 19° SW 03:51:01 67° SE 03:53:50 10° NE
[s.n.52700] 2.7 03:49:15 19° SW 03:51:07 68° SE 03:53:57 10° NE
[s.n.52695] 2.7 03:49:22 18° SW 03:51:15 68° SE 03:54:04 10° NE
[s.n.52698] 2.7 03:49:28 18° SW 03:51:21 68° SE 03:54:10 10° NE
[s.n.52693] 2.7 03:49:35 18° SW 03:51:28 68° SE 03:54:17 10° NE
[s.n.52696] 2.7 03:49:41 18° SW 03:51:35 69° SE 03:54:24 10° NE
[s.n.52691] 2.7 03:49:47 18° SW 03:51:41 69° SE 03:54:31 10° NE
[s.n.52689] 2.7 03:49:54 18° SW 03:51:48 69° SE 03:54:38 10° NE
[s.n.52694] 2.7 03:50:01 18° SW 03:51:55 69° SE 03:54:44 10° NE
[s.n.52692] 2.7 03:50:07 18° SW 03:52:02 69° SE 03:54:51 10° NE
[s.n.52687] 2.7 03:50:13 18° SW 03:52:09 70° SE 03:54:58 10° NE
[s.n.52685] 2.7 03:50:20 18° SW 03:52:15 70° SE 03:55:04 10° NE
[s.n.52690] 2.7 03:50:26 18° SW 03:52:21 70° SE 03:55:11 10° NE
Cosmos 1656 Rocket 3.6 03:47:05 10° NNW 03:52:25 61° WSW 03:57:44 10° S
[s.n.52688] 2.7 03:50:33 18° SW 03:52:29 70° SE 03:55:18 10° NE
Cosmos 1959 Rocket 4.5 03:46:18 10° N 03:52:34 83° W 03:58:44 10° S
[s.n.52683] 2.7 03:50:39 18° SW 03:52:36 71° SE 03:55:25 10° NE
[s.n.52686] 2.7 03:50:46 18° SW 03:52:42 71° SE 03:55:32 10° NE
Cosmos 1408 2.5 03:49:06 10° S 03:52:45 87° E 03:56:24 10° N
COSMOS 2455 4.0 03:47:57 12° WSW 03:52:48 31° NW 03:58:06 10° NNE
[s.n.52681] 2.7 03:50:53 18° SW 03:52:49 71° SE 03:55:39 10° NE
[s.n.52679] 2.7 03:50:59 18° SW 03:52:56 71° SE 03:55:46 10° NE
[s.n.52684] 2.7 03:51:06 18° SW 03:53:03 72° SE 03:55:53 10° NE
[s.n.52682] 2.7 03:51:12 18° SW 03:53:10 72° SE 03:56:00 10° NE
[s.n.52677] 2.7 03:51:19 18° SW 03:53:17 72° SE 03:56:07 10° NE
[s.n.52680] 2.6 03:51:26 18° SW 03:53:24 72° SE 03:56:14 10° NE
[s.n.52675] 2.6 03:51:32 18° SW 03:53:31 73° SE 03:56:20 10° NE
[s.n.52678] 2.6 03:51:39 18° SW 03:53:37 73° SE 03:56:28 10° NE
[s.n.52673] 2.6 03:51:46 17° SW 03:53:45 73° SE 03:56:35 10° NE
[s.n.52676] 2.6 03:51:52 17° SW 03:53:52 73° SE 03:56:42 10° NE
IRS-P3 4.4 03:48:32 10° NNE 03:53:53 71° ESE 03:59:11 10° S
[s.n.52671] 2.6 03:51:59 17° SW 03:53:59 74° SE 03:56:49 10° NE
[s.n.52669] 2.6 03:52:06 17° SW 03:54:05 74° SE 03:56:56 10° NE
[s.n.52674] 2.6 03:52:13 17° SW 03:54:13 74° SE 03:57:03 10° NE
[s.n.52672] 2.6 03:52:19 17° SW 03:54:19 74° SE 03:57:09 10° NE
[s.n.52667] 2.6 03:52:26 17° SW 03:54:27 75° SE 03:57:17 10° NE
[s.n.52665] 2.6 03:52:33 17° SW 03:54:34 75° SE 03:57:24 10° NE
[s.n.52670] 2.6 03:52:40 17° SW 03:54:40 75° SE 03:57:31 10° NE
[s.n.52668] 2.6 03:52:46 17° SW 03:54:48 75° SE 03:57:38 10° NE
[s.n.52666] 2.6 03:52:53 17° SW 03:54:55 76° SE 03:57:45 10° NE
Cosmos 1190 Rocket 4.3 03:49:38 10° NNW 03:54:57 75° ENE 04:00:15 10° SSE
[s.n.52663] 2.6 03:53:00 17° SW 03:55:02 76° SE 03:57:52 10° NE
[s.n.52662] 2.6 03:53:06 17° SW 03:55:09 76° SE 03:57:59 10° NE
[s.n.52664] 2.6 03:53:13 17° SW 03:55:16 77° SE 03:58:07 10° NE
[s.n.52661] 2.6 03:53:20 17° SW 03:55:23 77° SE 03:58:14 10° NE
[s.n.52660] 2.6 03:53:27 17° SW 03:55:30 77° SE 03:58:21 10° NE
[s.n.52656] 2.6 03:53:34 17° SW 03:55:37 77° SE 03:58:28 10° NE
[s.n.52658] 2.6 03:53:41 17° SW 03:55:45 78° SE 03:58:36 10° NE
[s.n.52659] 2.6 03:53:47 17° SW 03:55:52 78° SE 03:58:42 10° NE
[s.n.52657] 2.6 03:53:55 17° SW 03:55:59 78° SE 03:58:50 10° NE
Cosmos 864 Rocket 4.5 03:55:58 10° NNW 04:02:07 70° W 04:08:11 10° S
Cosmos 1603 4.2 04:01:41 11° SW 04:06:52 47° WNW 04:12:20 10° NNE
PAYLOAD A 3.9 04:04:30 10° N 04:09:15 75° WNW 04:14:05 10° SSW
ALOS 2.4 04:12:11 10° N 04:16:46 59° WNW 04:21:20 10° SSW
CZ-2C R/B 2.6 04:14:48 10° N 04:19:50 60° WNW 04:24:42 10° SSW
Cosmos 1869 3.7 04:17:04 10° N 04:20:59 68° E 04:24:50 10° SSE
Helios 1B rocket 3.6 04:17:43 10° NNW 04:21:09 27° WNW 04:24:34 10° SW
CZ-4C R/B 4.0 04:18:35 10° SSE 04:22:07 56° ENE 04:25:50 10° N
CZ-2D R/B 3.3 04:19:21 10° NNE 04:23:22 85° WNW 04:27:19 10° SSW
Lacrosse 5 4.2 04:20:44 10° WNW 04:23:56 16° NNW 04:27:09 10° NNE
Cosmos 1420 Rocket 4.1 04:20:46 10° SSW 04:25:52 62° WNW 04:31:03 10° NNE
